"2016-06-18 00:00:00",1732251,4.611,139.8,2.755,0.14,24.92,109.9697,24.82,25.84,33,0,111.3,13,25.66,101.8
"2016-06-18 00:00:30",1732252,4.403,141.5,2.109,0.199,24.93,109.9691,24.82,25.83,32.82,0,111.3,13,25.65,103.5
"2016-06-18 00:01:00",1732253,4.252,141.7,3.193,0.183,24.97,109.9551,24.78,25.82,33.05,0,111.3,13.01,25.62,103.7
"2016-06-18 00:01:30",1732254,2.905,148.5,4.315,0.533,25,109.9385,24.74,25.81,33.16,0,111.3,13.01,25.57,110.5
"2016-06-18 00:02:00",1732255,3.426,141.4,3.663,0.327,24.96,109.936,24.73,25.81,33.34,0,111.3,13.01,25.57,103.4
"2016-06-18 00:02:30",1732256,3.687,128.9,4.823,0.452,24.9,109.936,24.73,25.78,33.35,0,111.3,13.01,25.57,90.9
"2016-06-18 00:03:00",1732257,4.06,141.4,2.97,0.306,25.03,109.9217,24.69,25.77,32.99,0,111.3,13.01,25.53,103.4
"2016-06-18 00:03:30",1732258,3.936,140.4,4.75,0.295,25.03,109.9041,24.65,25.76,33.04,0,111.3,13.01,25.49,102.4
"2016-06-18 00:04:00",1732259,3.569,132.6,4.887,0.335,24.95,109.9054,24.65,25.74,33.32,0,111.3,13.01,25.49,94.6
"2016-06-18 00:04:30",1732260,3.593,133.1,5.188,0.199,24.95,109.902,24.64,25.74,33.67,0,111.3,13.01,25.48,95.1
"2016-06-18 00:05:00",1732261,4.296,135.8,2.45,0.581,24.97,109.885,24.6,25.71,33.5,0,111.3,13.01,25.44,97.8
"2016-06-18 00:05:30",1732262,4.923,126.1,2.789,0.191,24.98,109.8767,24.58,25.7,33.52,0,111.3,13.01,25.42,88.1
"2016-06-18 00:06:00",1732263,3.959,124.9,2.846,0.227,24.94,109.8838,24.6,25.69,33.52,0,111.3,13.01,25.43,86.9
"2016-06-18 00:06:30",1732264,4.073,129.1,3.126,0.136,24.95,109.8863,24.6,25.67,33.91,0,111.3,13.01,25.44,91.1
"2016-06-18 00:07:00",1732265,4.045,125.6,4.12,0.171,24.86,109.872,24.57,25.64,33.84,0,111.3,13.01,25.40,87.6
"2016-06-18 00:07:30",1732266,3.754,126.9,4.901,0.197,24.83,109.8644,24.55,25.61,33.66,0,111.3,13.01,25.38,88.9
"2016-06-18 00:08:00",1732267,4.035,120.2,2.468,0.251,24.9,109.863,24.54,25.6,33.18,0,111.3,13.01,25.38,82.2
"2016-06-18 00:08:30",1732268,4.389,123,4.009,0.226,24.93,109.863,24.54,25.57,32.37,0,111.3,13.01,25.38,85.0
"2016-06-18 00:09:00",1732269,3.69,133.7,1.615,0.182,24.87,109.86,24.53,25.57,32.86,0,111.3,13.01,25.37,95.7
"2016-06-18 00:09:30",1732270,3.402,133.5,3.267,0.302,24.87,109.8445,24.5,25.55,32.87,0,111.3,13.01,25.33,95.5
"2016-06-18 00:10:00",1732271,3.521,130.6,2.86,0.225,24.9,109.8379,24.48,25.54,32.57,0,111.3,13.01,25.32,92.6
"2016-06-18 00:10:30",1732272,3.45,126.6,3.592,0.344,24.93,109.8383,24.48,25.54,32.43,0,111.3,13.01,25.32,88.6
"2016-06-18 00:11:00",1732273,3.407,128.6,4.116,0.345,24.97,109.8383,24.48,25.51,32.42,0,111.3,13,25.32,90.6
"2016-06-18 00:11:30",1732274,3.917,128.5,2.399,0.152,25,109.836,24.47,25.51,32.72,0,111.3,13.01,25.31,90.5
"2016-06-18 00:12:00",1732275,4.009,133.8,1.638,0.18,24.93,109.8276,24.45,25.5,32.94,0,111.3,13.01,25.29,95.8
"2016-06-18 00:12:30",1732276,3.472,138,3.308,0.192,24.96,109.8183,24.43,25.49,32.58,0,111.3,13.01,25.26,100.0
"2016-06-18 00:13:00",1732277,3.277,135.5,2.085,0.296,24.95,109.8051,24.39,25.46,32.1,0,111.2,13.01,25.23,97.5
"2016-06-18 00:13:30",1732278,3.326,135.8,3.513,0.146,24.95,109.8046,24.39,25.46,32.73,0,111.2,13.01,25.23,97.8
"2016-06-18 00:14:00",1732279,3.257,142.6,2.022,0.169,24.95,109.8046,24.39,25.45,33.02,0,111.2,13.01,25.23,104.6
"2016-06-18 00:14:30",1732280,3.136,142,3.973,0.159,24.97,109.8046,24.39,25.44,33.19,0,111.2,13.01,25.23,104.0
"2016-06-18 00:15:00",1732281,3.204,129.8,4.717,0.171,24.93,109.8026,24.39,25.44,33.01,0,111.2,13.01,25.22,91.8
"2016-06-18 00:15:30",1732282,3.307,129.4,3.221,0.217,25,109.7911,24.36,25.41,32.63,0,111.2,13.01,25.19,91.4
"2016-06-18 00:16:00",1732283,3.439,133.2,3.152,0.211,24.99,109.7796,24.33,25.43,32.3,0,111.2,13.02,25.17,95.2
"2016-06-18 00:16:30",1732284,2.986,134.9,1.843,0.165,24.96,109.7712,24.31,25.41,32.35,0,111.2,13.02,25.14,96.9
"2016-06-18 00:17:00",1732285,3.102,134.3,1.334,0.108,25.02,109.7709,24.31,25.39,32.17,0,111.2,13.02,25.14,96.3
"2016-06-18 00:17:30",1732286,2.633,143,3.402,0.129,24.97,109.7709,24.31,25.39,33.1,0,111.2,13.02,25.14,105.0
"2016-06-18 00:18:00",1732287,2.913,145,2.165,0.158,24.95,109.7712,24.31,25.37,33.47,0,111.2,13.02,25.14,107.0
"2016-06-18 00:18:30",1732288,2.806,142.2,2.259,0.155,24.95,109.7715,24.31,25.39,34.21,0,111.2,13.02,25.14,104.2
"2016-06-18 00:19:00",1732289,3.042,143.6,1.902,0.168,24.96,109.7714,24.31,25.37,33.47,0,111.2,13.02,25.14,105.6
"2016-06-18 00:19:30",1732290,3.254,144.1,1.784,0.134,25,109.7618,24.28,25.36,33.55,0,111.2,13.02,25.12,106.1
"2016-06-18 00:20:00",1732291,3.481,142.9,2.852,0.172,25.09,109.7651,24.29,25.35,33.29,0,111.2,13.02,25.13,104.9
"2016-06-18 00:20:30",1732292,2.888,143.5,2.03,0.185,25.07,109.7632,24.29,25.33,33.57,0,111.2,13.02,25.12,105.5
"2016-06-18 00:21:00",1732293,2.727,144.5,1.884,0.189,25.07,109.7643,24.29,25.34,33.21,0,111.2,13.02,25.13,106.5
"2016-06-18 00:21:30",1732294,2.637,141.3,2.448,0.182,25.02,109.7649,24.29,25.32,33.37,0,111.2,13.02,25.13,103.3
"2016-06-18 00:22:00",1732295,3.281,140.8,3.211,0.199,25.02,109.7649,24.29,25.31,33.02,0,111.2,13.02,25.13,102.8
"2016-06-18 00:22:30",1732296,3.131,138.5,2.553,0.123,24.94,109.7655,24.29,25.32,32.5,0,111.2,13.02,25.13,100.5
"2016-06-18 00:23:00",1732297,2.986,136.6,1.712,0.099,25,109.7683,24.3,25.31,32.36,0,111.2,13.02,25.14,98.6
"2016-06-18 00:23:30",1732298,3.283,139.7,2.878,0.222,25.01,109.7677,24.3,25.29,32.64,0,111.2,13.02,25.13,101.7
"2016-06-18 00:24:00",1732299,3.35,138.8,3.146,0.193,24.98,109.7642,24.29,25.29,34.36,0,111.2,13.02,25.13,100.8
"2016-06-18 00:24:30",1732300,3.42,140.4,1.719,0.125,24.94,109.7564,24.27,25.3,34.42,0,111.2,13.02,25.11,102.4
"2016-06-18 00:25:00",1732301,3.599,134.5,1.415,0.072,24.9,109.7517,24.26,25.29,34.3,0,111.2,13.02,25.09,96.5
"2016-06-18 00:25:30",1732302,3.455,135.4,2.208,0.081,24.88,109.7461,24.24,25.28,34.04,0,111.2,13.03,25.08,97.4
"2016-06-18 00:26:00",1732303,3.45,136.9,2.225,0.115,24.92,109.7422,24.23,25.28,34.34,0,111.2,13.03,25.07,98.9
"2016-06-18 00:26:30",1732304,3.311,133.6,1.266,0.081,25,109.7405,24.23,25.27,33.94,0,111.2,13.03,25.06,95.6
"2016-06-18 00:27:00",1732305,3.338,132.4,2.856,0.05,25.01,109.7405,24.23,25.27,33.11,0,111.2,13.03,25.06,94.4
"2016-06-18 00:27:30",1732306,3.433,131.3,2.261,0.183,24.98,109.7405,24.23,25.25,32.89,0,111.2,13.02,25.06,93.3
"2016-06-18 00:28:00",1732307,3.353,129.2,3.105,0.176,25.01,109.7405,24.23,25.26,33.22,0,111.2,13.02,25.06,91.2
"2016-06-18 00:28:30",1732308,3.342,132.1,1.371,0.134,25.01,109.7405,24.23,25.25,34.35,0,111.2,13.02,25.06,94.1
"2016-06-18 00:29:00",1732309,3.211,130.6,1.331,0.102,24.9,109.7405,24.23,25.25,35.37,0,111.2,13.02,25.06,92.6
"2016-06-18 00:29:30",1732310,3.129,131.5,1.424,0.122,24.97,109.7405,24.23,25.25,34.91,0,111.2,13.02,25.06,93.5
"2016-06-18 00:30:00",1732311,3.105,130.8,1.991,0.227,25,109.7405,24.23,25.26,35.33,0,111.2,13.02,25.06,92.8
"2016-06-18 00:30:30",1732312,2.79,128.2,1.435,0.054,25.12,109.7405,24.23,25.25,34.14,0,111.2,13.02,25.06,90.2
"2016-06-18 00:31:00",1732313,3.22,129.1,1.882,0.297,24.95,109.7394,24.22,25.25,33.73,0,111.2,13.02,25.06,91.1
"2016-06-18 00:31:30",1732314,3.784,124.8,3.238,0.147,25.04,109.7329,24.21,25.24,36.34,0,111.2,13.02,25.04,86.8
"2016-06-18 00:32:00",1732315,3.886,122.5,2.634,0.138,24.99,109.7219,24.18,25.25,36.88,0,111.2,13.02,25.02,84.5
"2016-06-18 00:32:30",1732316,3.472,123.1,4.262,0.215,25.05,109.7152,24.16,25.25,37.12,0,111.2,13.02,25.00,85.1
"2016-06-18 00:33:00",1732317,3.632,116.2,1.681,0.094,25.24,109.7121,24.15,25.23,37.02,0,111.2,13.03,24.99,78.2
"2016-06-18 00:33:30",1732318,3.841,116.7,2.982,0.157,25.15,109.707,24.14,25.24,37.12,0,111.2,13.03,24.98,78.7
"2016-06-18 00:34:00",1732319,3.602,120.8,2.287,0.122,25.32,109.7068,24.14,25.21,36.81,0,111.2,13.03,24.98,82.8
"2016-06-18 00:34:30",1732320,3.669,124.1,2.164,0.187,25.14,109.7074,24.14,25.22,36.34,0,111.2,13.03,24.98,86.1
"2016-06-18 00:35:00",1732321,3.623,123.2,2.121,0.134,25.32,109.708,24.14,25.2,36.55,0,111.2,13.03,24.98,85.2
"2016-06-18 00:35:30",1732322,3.722,123.4,3.193,0.187,25.35,109.7071,24.14,25.21,36.45,0,111.2,13.03,24.98,85.4
"2016-06-18 00:36:00",1732323,3.923,121.9,1.93,0.172,25.24,109.712,24.15,25.19,36.43,0,111.2,13.03,24.99,83.9
"2016-06-18 00:36:30",1732324,3.874,121,3.94,0.173,25.32,109.7148,24.16,25.2,36.49,0,111.2,13.03,25.00,83.0
"2016-06-18 00:37:00",1732325,3.604,117.6,2.019,0.108,25.41,109.715,24.16,25.19,36.75,0,111.2,13.03,25.00,79.6
"2016-06-18 00:37:30",1732326,3.823,114.6,2.48,0.124,25.31,109.7153,24.16,25.19,37.01,0,111.2,13.03,25.00,76.6
"2016-06-18 00:38:00",1732327,3.747,122.5,3.284,0.225,22.48,109.7168,24.17,25.19,36.91,0,111.2,13.03,25.00,84.5
"2016-06-18 00:38:30",1732328,3.294,124.8,3.868,0.233,25.2,109.7114,24.15,25.18,36.69,0,111.2,13.03,24.99,86.8
"2016-06-18 00:39:00",1732329,3.131,122.4,3.09,0.13,25.19,109.7105,24.15,25.18,36.57,0,111.2,13.03,24.99,84.4
"2016-06-18 00:39:30",1732330,2.768,125.3,2.376,0.109,24.88,109.7097,24.15,25.16,36.62,0,111.2,13.03,24.98,87.3
"2016-06-18 00:40:00",1732331,2.787,129.4,2.323,0.071,24.91,109.7092,24.15,25.15,36.36,0,111.2,13.03,24.98,91.4
"2016-06-18 00:40:30",1732332,2.984,127.1,2.309,0.15,24.85,109.7098,24.15,25.16,36.52,0,111.2,13.03,24.99,89.1
"2016-06-18 00:41:00",1732333,3.003,125.7,1.851,0.191,24.65,109.7112,24.15,25.17,36.21,0,111.2,13.03,24.99,87.7
"2016-06-18 00:41:30",1732334,2.786,126.9,2.283,0.248,24.46,109.7173,24.17,25.16,36.22,0,111.2,13.03,25.00,88.9
"2016-06-18 00:42:00",1732335,2.227,130.1,2.77,0.123,24.25,109.7301,24.2,25.16,36.39,0,111.2,13.03,25.04,92.1
"2016-06-18 00:42:30",1732336,2.025,133.1,2.756,0.153,24.23,109.7351,24.21,25.18,36.3,0,111.2,13.03,25.05,95.1
"2016-06-18 00:43:00",1732337,1.969,129.8,2.3,0.102,24.17,109.7351,24.21,25.19,36.12,0,111.2,13.03,25.05,91.8
"2016-06-18 00:43:30",1732338,1.857,123.2,3.652,0.234,23.9,109.7348,24.21,25.21,36.23,0,111.2,13.03,25.05,85.2
"2016-06-18 00:44:00",1732339,1.517,128,2.398,0.099,23.9,109.7375,24.22,25.2,36.08,0,111.2,13.03,25.06,90.0
"2016-06-18 00:44:30",1732340,1.338,125.5,1.85,0.078,23.73,109.7608,24.28,25.23,36.04,0,111.2,13.03,25.12,87.5
"2016-06-18 00:45:00",1732341,1.656,118.5,4.647,0.282,23.78,109.7676,24.3,25.24,36.02,0,111.2,13.03,25.13,80.5
"2016-06-18 00:45:30",1732342,1.858,127.7,6.768,0.211,23.77,109.766,24.29,25.27,36.09,0,111.2,13.03,25.13,89.7
"2016-06-18 00:46:00",1732343,1.588,119.4,5.902,0.124,23.69,109.7881,24.35,25.28,35.98,0,111.2,13.03,25.19,81.4
"2016-06-18 00:46:30",1732344,1.606,108.6,3.349,0.165,23.67,109.7911,24.36,25.31,36.35,0,111.2,13.02,25.19,70.6
"2016-06-18 00:47:00",1732345,1.669,109.7,2.576,0.057,23.65,109.794,24.37,25.32,36.3,0,111.2,13.02,25.20,71.7
"2016-06-18 00:47:30",1732346,1.765,116.6,3.683,0.072,23.71,109.8113,24.41,25.35,36.1,0,111.2,13.02,25.25,78.6
"2016-06-18 00:48:00",1732347,1.863,117.7,2.881,0.073,23.49,109.809,24.4,25.38,35.9,0,111.2,13.02,25.24,79.7
"2016-06-18 00:48:30",1732348,1.83,121.7,3.04,0.06,23.51,109.8352,24.47,25.41,35.88,0,111.2,13.02,25.31,83.7
"2016-06-18 00:49:00",1732349,1.791,116.4,1.373,0.045,23.59,109.8427,24.49,25.45,35.82,0,111.2,13.02,25.33,78.4
"2016-06-18 00:49:30",1732350,1.934,115.4,2.705,0.17,23.64,109.8666,24.55,25.47,35.6,0,111.2,13.02,25.39,77.4
"2016-06-18 00:50:00",1732351,2.485,118,2.434,0.175,23.63,109.8756,24.57,25.5,35.27,0,111.2,13.02,25.41,80.0
"2016-06-18 00:50:30",1732352,2.66,120.1,2.1,0.182,23.76,109.891,24.61,25.54,35.08,0,111.2,13.03,25.45,82.1
"2016-06-18 00:51:00",1732353,2.524,133.9,6.398,0.156,23.7,109.909,24.66,25.58,34.74,0,111.2,13.03,25.50,95.9
"2016-06-18 00:51:30",1732354,2.355,145.6,2.539,0.075,23.59,109.916,24.68,25.59,34.64,0,111.2,13.03,25.52,107.6
"2016-06-18 00:52:00",1732355,2.298,148.8,1.775,0.084,23.66,109.9424,24.75,25.63,34.17,0,111.2,13.03,25.58,110.8
"2016-06-18 00:52:30",1732356,2.16,151,3.704,0.091,23.73,109.9449,24.75,25.66,33.84,0,111.2,13.03,25.59,113.0
"2016-06-18 00:53:00",1732357,2.097,142.6,1.517,0.078,23.92,109.9716,24.82,25.69,33.8,0,111.2,13.03,25.66,104.6
"2016-06-18 00:53:30",1732358,2.225,141.3,2.302,0.14,23.79,109.9764,24.83,25.72,33.66,0,111.2,13.03,25.67,103.3
"2016-06-18 00:54:00",1732359,2.362,147.1,2.329,0.042,23.54,109.9904,24.87,25.76,33.44,0,111.2,13.03,25.71,109.1
"2016-06-18 00:54:30",1732360,2.284,149.1,1.323,0.09,23.62,110.0098,24.92,25.79,33.37,0,111.2,13.03,25.76,111.1
"2016-06-18 00:55:00",1732361,2.392,147.7,2.313,0.094,23.62,110.0075,24.91,25.82,33.25,0,111.2,13.03,25.75,109.7
"2016-06-18 00:55:30",1732362,2.226,150.6,1.987,0.132,23.71,110.0291,24.97,25.85,33.17,0,111.2,13.03,25.81,112.6
"2016-06-18 00:56:00",1732363,1.982,152.4,3.387,0.092,23.81,110.0355,24.99,25.86,33.22,0,111.2,13.03,25.82,114.4
"2016-06-18 00:56:30",1732364,2.07,156.6,2.188,0.053,23.58,110.0469,25.01,25.91,33.22,0,111.3,13.03,25.85,118.6
"2016-06-18 00:57:00",1732365,1.905,155.2,3.753,0.082,23.9,110.0668,25.07,25.92,33.1,0,111.3,13.03,25.91,117.2
"2016-06-18 00:57:30",1732366,1.893,154.7,1.421,0.115,23.78,110.0645,25.06,25.98,32.9,0,111.3,13.03,25.90,116.7
"2016-06-18 00:58:00",1732367,2.033,151.4,3.121,0.106,23.64,110.0763,25.09,26,32.76,0,111.3,13.03,25.93,113.4
"2016-06-18 00:58:30",1732368,2.393,148.7,0.986,0.111,23.59,110.0788,25.1,26.03,32.61,0,111.3,13.03,25.94,110.7
"2016-06-18 00:59:00",1732369,2.537,153.2,1.828,0.049,24,110.0793,25.1,26.05,32.66,0,111.3,13.03,25.94,115.2
"2016-06-18 00:59:30",1732370,2.499,151.6,1.44,0.048,24.04,110.1022,25.16,26.07,32.57,0,111.3,13.02,26.00,113.6
"2016-06-18 01:00:00",1732371,2.504,151.8,1.595,0.077,23.98,110.1078,25.17,26.11,32.46,0,111.3,13.02,26.01,113.8
"2016-06-18 01:00:30",1732372,2.449,149.4,2.212,0.072,23.82,110.1103,25.18,26.14,32.32,0,111.3,13.02,26.02,111.4
"2016-06-18 01:01:00",1732373,2.518,153.7,1.271,0.074,24.02,110.1317,25.23,26.17,32.07,0,111.3,13.02,26.07,115.7
"2016-06-18 01:01:30",1732374,2.455,154.7,1.956,0.09,24.08,110.1415,25.26,26.19,31.84,0,111.3,13.02,26.10,116.7
"2016-06-18 01:02:00",1732375,2.475,154.7,1.246,0.106,24.04,110.1415,25.26,26.22,31.68,0,111.3,13.02,26.10,116.7
"2016-06-18 01:02:30",1732376,2.71,151.6,1.774,0.186,23.76,110.1491,25.28,26.25,31.61,0,111.3,13.02,26.12,113.6
"2016-06-18 01:03:00",1732377,2.646,142.5,3.715,0.128,23.87,110.1659,25.32,26.26,31.44,0,111.3,13.02,26.16,104.5
"2016-06-18 01:03:30",1732378,2.508,142.7,2.055,0.086,23.79,110.1752,25.34,26.27,31.4,0,111.3,13.01,26.19,104.7
"2016-06-18 01:04:00",1732379,2.662,142.8,1.959,0.147,23.98,110.1752,25.34,26.3,31.31,0,111.3,13.01,26.19,104.8
"2016-06-18 01:04:30",1732380,2.873,138.5,2.024,0.076,23.99,110.1758,25.35,26.32,31.59,0,111.3,13.01,26.19,100.5
"2016-06-18 01:05:00",1732381,2.968,136.9,1.547,0.142,24.03,110.1833,25.37,26.35,31.42,0,111.3,13.01,26.21,98.9
"2016-06-18 01:05:30",1732382,3.014,140.4,1.886,0.132,23.99,110.1948,25.4,26.36,31.56,0,111.3,13.01,26.24,102.4
"2016-06-18 01:06:00",1732383,2.919,144,3.146,0.191,24.02,110.2061,25.42,26.35,31.66,0,111.3,13.01,26.26,106.0
"2016-06-18 01:06:30",1732384,3.059,146.5,3.034,0.153,23.93,110.2089,25.43,26.39,31.49,0,111.3,13.01,26.27,108.5
"2016-06-18 01:07:00",1732385,2.968,145,2.436,0.18,24.06,110.2089,25.43,26.39,31.66,0,111.3,13.01,26.27,107.0
"2016-06-18 01:07:30",1732386,3.236,146.5,3.564,0.192,23.98,110.2086,25.43,26.4,31.69,0,111.3,13.01,26.27,108.5
"2016-06-18 01:08:00",1732387,2.907,156.8,4.621,0.237,24.1,110.2089,25.43,26.4,32.06,0,111.3,13.02,26.27,118.8
"2016-06-18 01:08:30",1732388,3.466,148.7,3.181,0.227,24.09,110.2083,25.43,26.41,32.28,0,111.3,13.02,26.27,110.7
"2016-06-18 01:09:00",1732389,3.997,148.1,2.211,0.192,24.17,110.2086,25.43,26.42,32.03,0,111.3,13.02,26.27,110.1
"2016-06-18 01:09:30",1732390,3.727,156.4,3.005,0.226,24.28,110.2089,25.43,26.42,31.39,0,111.3,13.02,26.27,118.4
"2016-06-18 01:10:00",1732391,3.443,162.3,2.747,0.144,24.26,110.2086,25.43,26.42,30.9,0,111.3,13.02,26.27,124.3
"2016-06-18 01:10:30",1732392,2.847,162.1,2.333,0.225,24.18,110.2089,25.43,26.42,31.21,0,111.3,13.02,26.27,124.1
"2016-06-18 01:11:00",1732393,3.05,168,2.585,0.114,24.35,110.2071,25.43,26.43,31.03,0,111.3,13.02,26.27,130.0
"2016-06-18 01:11:30",1732394,3.177,166.4,2.346,0.13,24.32,110.1943,25.39,26.41,31.03,0,111.3,13.02,26.23,128.4
"2016-06-18 01:12:00",1732395,3.298,165.2,1.9,0.178,24.22,110.1824,25.36,26.42,31.01,0,111.3,13.02,26.20,127.2
"2016-06-18 01:12:30",1732396,3.199,163,5.64,0.113,24.29,110.1762,25.35,26.4,31.14,0,111.3,13.02,26.19,125.0
"2016-06-18 01:13:00",1732397,3.237,169.6,6.045,0.172,24.31,110.1721,25.34,26.39,31.49,0,111.3,13.02,26.18,131.6
"2016-06-18 01:13:30",1732398,2.973,173.5,2.589,0.221,24.28,110.173,25.34,26.39,31.27,0,111.3,13.02,26.18,135.5
"2016-06-18 01:14:00",1732399,2.853,164.4,2.128,0.083,24.14,110.174,25.34,26.39,31.53,0,111.3,13.02,26.18,126.4
"2016-06-18 01:14:30",1732400,3.028,168.9,5.122,0.242,24.19,110.1746,25.34,26.38,31.66,0,111.3,13.02,26.18,130.9
"2016-06-18 01:15:00",1732401,3.107,167.2,3.606,0.106,24.34,110.172,25.34,26.36,31.55,0,111.3,13.02,26.18,129.2
"2016-06-18 01:15:30",1732402,3.126,158.8,4.54,0.174,24.24,110.1561,25.3,26.35,32.02,0,111.3,13.01,26.14,120.8
"2016-06-18 01:16:00",1732403,2.83,161.2,6.046,0.181,24.25,110.1443,25.27,26.34,32.62,0,111.3,13.01,26.11,123.2
"2016-06-18 01:16:30",1732404,2.776,162.9,7.677,0.198,24.3,110.1378,25.25,26.32,32.42,0,111.3,13.01,26.09,124.9
"2016-06-18 01:17:00",1732405,2.918,167.8,2.404,0.105,24.35,110.1372,25.25,26.31,31.8,0,111.3,13.01,26.09,129.8
"2016-06-18 01:17:30",1732406,2.798,167.6,4.128,0.135,24.24,110.1369,25.25,26.3,31.81,0,111.3,13.01,26.09,129.6
"2016-06-18 01:18:00",1732407,2.969,162.8,3.29,0.282,24.28,110.1378,25.25,26.29,32.24,0,111.3,13.01,26.09,124.8
"2016-06-18 01:18:30",1732408,3.045,159.9,4.837,0.131,24.3,110.1356,25.24,26.28,33.12,0,111.3,13.01,26.08,121.9
"2016-06-18 01:19:00",1732409,3.139,158.4,4.291,0.241,24.31,110.1359,25.24,26.27,33.28,0,111.3,13.01,26.08,120.4
"2016-06-18 01:19:30",1732410,2.93,159.7,5.232,0.118,24.31,110.1332,25.24,26.27,33.36,0,111.3,13.01,26.08,121.7
"2016-06-18 01:20:00",1732411,2.939,160.1,1.027,0.067,24.32,110.1266,25.22,26.25,32.57,0,111.3,13.01,26.06,122.1
"2016-06-18 01:20:30",1732412,3.017,159.9,2.376,0.078,24.38,110.1124,25.18,26.24,32.75,0,111.3,13.01,26.02,121.9
"2016-06-18 01:21:00",1732413,3.041,151.2,3.419,0.206,24.24,110.1107,25.18,26.23,33.23,0,111.3,13,26.02,113.2
"2016-06-18 01:21:30",1732414,2.759,152.3,2.488,0.114,24.23,110.1053,25.17,26.24,33.34,0,111.3,13,26.00,114.3
"2016-06-18 01:22:00",1732415,2.809,147.6,2.886,0.176,24.32,110.103,25.16,26.22,33.57,0,111.3,13,26.00,109.6
"2016-06-18 01:22:30",1732416,2.808,143.1,5.092,0.181,24.24,110.105,25.16,26.22,33.67,0,111.3,13,26.00,105.1
"2016-06-18 01:23:00",1732417,2.25,147.3,6.92,0.25,24.27,110.1026,25.16,26.23,33.46,0,111.3,13,26.00,109.3
"2016-06-18 01:23:30",1732418,2.26,163.9,3.066,0.278,24.36,110.1013,25.15,26.2,33.56,0,111.3,13,25.99,125.9
"2016-06-18 01:24:00",1732419,3.155,161.3,3.426,0.346,24.25,110.1019,25.16,26.21,33.58,0,111.3,13,26.00,123.3
"2016-06-18 01:24:30",1732420,3.231,156.6,1.987,0.16,24.36,110.101,25.15,26.2,33.66,0,111.3,13.01,25.99,118.6
"2016-06-18 01:25:00",1732421,2.897,156.6,4.783,0.135,24.32,110.1029,25.16,26.2,33.92,0,111.3,13.01,26.00,118.6
"2016-06-18 01:25:30",1732422,2.99,170.2,3.772,0.147,24.46,110.1029,25.16,26.17,34.13,0,111.3,13.01,26.00,132.2
"2016-06-18 01:26:00",1732423,3.135,170.3,4.579,0.187,24.45,110.0917,25.13,26.17,34.21,0,111.3,13.01,25.97,132.3
"2016-06-18 01:26:30",1732424,2.864,175.7,4.479,0.143,24.45,110.0814,25.1,26.15,34.12,0,111.3,13.01,25.94,137.7
"2016-06-18 01:27:00",1732425,2.58,171.8,2.748,0.129,24.44,110.073,25.08,26.14,34.1,0,111.3,13.01,25.92,133.8
"2016-06-18 01:27:30",1732426,2.66,173.7,3.941,0.16,24.39,110.0707,25.08,26.12,34.04,0,111.3,13.01,25.92,135.7
"2016-06-18 01:28:00",1732427,2.585,174.8,3.113,0.234,24.34,110.072,25.08,26.12,34.18,0,111.3,13.01,25.92,136.8
"2016-06-18 01:28:30",1732428,2.322,176.5,5.611,0.129,24.44,110.0735,25.08,26.1,34.48,0,111.3,13.01,25.92,138.5
"2016-06-18 01:29:00",1732429,2.014,170.7,2.742,0.232,24.38,110.0723,25.08,26.1,34.84,0,111.3,13.01,25.92,132.7
"2016-06-18 01:29:30",1732430,2.008,172.9,5.539,0.125,24.39,110.0646,25.06,26.09,34.7,0,111.3,13.01,25.90,134.9
"2016-06-18 01:30:00",1732431,2.34,182.6,3.206,0.26,24.38,110.0485,25.02,26.08,34.66,0,111.3,13.01,25.86,144.6
"2016-06-18 01:30:30",1732432,2.204,188.3,2.296,0.141,24.47,110.0428,25,26.06,34,0,111.3,13.01,25.84,150.3
"2016-06-18 01:31:00",1732433,2.124,188.8,2.737,0.189,24.48,110.0406,25,26.05,32.88,0,111.3,13.01,25.84,150.8
"2016-06-18 01:31:30",1732434,2.445,182.4,4.657,0.272,24.39,110.0389,24.99,26.04,33.19,0,111.3,13.01,25.83,144.4
"2016-06-18 01:32:00",1732435,2.628,182.5,3.612,0.195,24.51,110.0392,25,26.03,32.49,0,111.3,13.01,25.83,144.5
"2016-06-18 01:32:30",1732436,2.84,177.5,1.883,0.144,24.51,110.0383,24.99,26.02,32.1,0,111.3,13.01,25.83,139.5
"2016-06-18 01:33:00",1732437,2.447,175.6,4.344,0.128,24.5,110.0386,24.99,26.02,33.37,0,111.3,13.01,25.83,137.6
"2016-06-18 01:33:30",1732438,2.442,170.9,3.118,0.109,24.5,110.0395,25,26.02,33.84,0,111.3,13.01,25.84,132.9
"2016-06-18 01:34:00",1732439,2.525,168.2,2.321,0.097,24.53,110.0395,25,26.03,34.42,0,111.3,13.01,25.84,130.2
"2016-06-18 01:34:30",1732440,2.217,170.2,2.099,0.13,24.4,110.0398,25,26.01,34.78,0,111.3,13.01,25.84,132.2
"2016-06-18 01:35:00",1732441,2.165,167,2.873,0.084,24.4,110.0386,24.99,25.99,34.69,0,111.3,13.01,25.83,129.0
"2016-06-18 01:35:30",1732442,2.436,168.1,3.992,0.19,24.47,110.0345,24.98,26,35.69,0,111.3,13.01,25.82,130.1
"2016-06-18 01:36:00",1732443,2.249,170.8,2.879,0.175,24.45,110.0205,24.95,25.99,36.12,0,111.3,13.01,25.79,132.8
"2016-06-18 01:36:30",1732444,2.3,171.3,3.414,0.196,24.45,110.0073,24.91,25.97,36.26,0,111.3,13.01,25.75,133.3
"2016-06-18 01:37:00",1732445,2.436,173.1,2.681,0.165,24.48,110.0067,24.91,25.94,36.46,0,111.3,13.01,25.75,135.1
"2016-06-18 01:37:30",1732446,2.482,169.4,3.025,0.153,24.51,110.0067,24.91,25.94,36.45,0,111.3,13.01,25.75,131.4
"2016-06-18 01:38:00",1732447,2.179,173.1,4.293,0.253,24.62,110.0067,24.91,25.94,35.59,0,111.3,13.01,25.75,135.1
"2016-06-18 01:38:30",1732448,2.057,172.1,4.747,0.18,24.5,110.0067,24.91,25.93,34.98,0,111.3,13.01,25.75,134.1
"2016-06-18 01:39:00",1732449,2.158,179.2,4.489,0.301,24.54,110.0061,24.91,25.91,35.08,0,111.3,13.01,25.75,141.2
"2016-06-18 01:39:30",1732450,2.421,184.9,2.027,0.106,24.69,110.0056,24.91,25.91,32.82,0,111.3,13.01,25.75,146.9
"2016-06-18 01:40:00",1732451,2.148,184.1,3.831,0.115,24.57,109.9986,24.89,25.91,32.77,0,111.3,13.01,25.73,146.1
"2016-06-18 01:40:30",1732452,2.327,188.8,5.584,0.118,24.59,109.9913,24.87,25.89,32.64,0,111.3,13.01,25.71,150.8
"2016-06-18 01:41:00",1732453,2.389,194.7,1.453,0.141,24.6,109.9854,24.86,25.88,32.15,0,111.3,13.01,25.70,156.7
"2016-06-18 01:41:30",1732454,2.251,194.7,2.447,0.098,24.56,109.9837,24.85,25.89,31.87,0,111.3,13.01,25.69,156.7
"2016-06-18 01:42:00",1732455,2.282,195,1.237,0.154,24.61,109.9834,24.85,25.88,31.91,0,111.3,13.01,25.69,157.0
"2016-06-18 01:42:30",1732456,2.274,188.3,2.005,0.104,24.56,109.9806,24.84,25.89,32.16,0,111.3,13.01,25.68,150.3
"2016-06-18 01:43:00",1732457,2.257,193,1.498,0.092,24.56,109.9815,24.85,25.87,32.67,0,111.3,13.01,25.69,155.0
"2016-06-18 01:43:30",1732458,2.123,191.1,1.483,0.054,24.54,109.982,24.85,25.87,32.86,0,111.3,13.01,25.69,153.1
"2016-06-18 01:44:00",1732459,2.047,188.4,3.706,0.147,24.52,109.982,24.85,25.87,33.4,0,111.3,13.02,25.69,150.4
"2016-06-18 01:44:30",1732460,2.034,194.5,3.147,0.123,24.5,109.9829,24.85,25.88,34.43,0,111.3,13.02,25.69,156.5
"2016-06-18 01:45:00",1732461,2.044,189,1.582,0.076,24.53,109.9826,24.85,25.87,33.55,0,111.3,13.02,25.69,151.0
"2016-06-18 01:45:30",1732462,2.074,194.5,2.827,0.089,24.52,109.982,24.85,25.88,33.33,0,111.3,13.02,25.69,156.5
"2016-06-18 01:46:00",1732463,2.071,196.3,3.726,0.078,24.54,109.9815,24.85,25.87,33.25,0,111.3,13.02,25.69,158.3
"2016-06-18 01:46:30",1732464,2.057,194.1,0.945,0.038,24.59,109.9826,24.85,25.87,33.15,0,111.3,13.02,25.69,156.1
"2016-06-18 01:47:00",1732465,1.922,191.8,1.433,0.064,24.65,109.9837,24.85,25.89,33.28,0,111.3,13.02,25.69,153.8